SCP
0 0 0 0 0 0 0 0 0 0 0 0 0 0 0 0 0 0 0 0 0 0 1 1 1 1 1 1 2 2 2 2 1 1 1 1 0 0 1 1 0 1 1 1
0 0 0 0 0 0 0 0 0 0 0 0 0 0 0 0 0 0 0 0 0 0 0 1 1 1 1 1 1 2 2 2 2 1 1 1 1 1 1 1 1 1 1 1
0 0 0 0 0 0 0 0 0 0 0 0 0 0 0 0 0 0 0 0 0 0 0 0 1 1 1 1 1 2 2 2 2 1 1 1 1 1 1 1 1 1 1 1
0 0 0 0 0 0 0 0 0 0 0 0 0 0 0 0 0 0 0 0 0 0 0 0 0 0 1 1 1 2 2 1 1 2 1 1 1 1 1 1 1 1 1 1
0 0 0 0 0 0 0 0 0 0 0 0 0 0 0 0 0 0 0 0 0 0 0 0 0 0 1 1 2 2 2 1 1 2 2 2 1 1 1 1 0 0 0 0
0 0 0 0 0 0 0 0 0 0 0 0 0 0 0 0 0 0 0 0 0 0 0 0 0 0 1 1 2 2 2 1 1 1 2 2 2 1 1 1 0 0 0 0
0 0 0 0 0 0 0 0 0 0 0 0 0 0 0 0 0 0 1 1 0 0 0 0 0 0 1 2 2 2 2 1 1 1 1 1 2 2 1 1 0 0 0 0
0 0 0 0 0 0 0 0 0 0 0 0 0 0 0 0 0 0 1 1 1 0 0 0 0 0 1 2 3 3 2 1 1 0 1 1 1 2 1 1 1 0 0 0
0 0 0 0 0 0 0 0 0 0 0 0 0 0 0 0 0 0 1 1 1 0 0 0 0 1 2 4 4 3 2 1 0 0 0 1 1 1 1 1 1 0 0 0
0 0 0 0 0 0 0 0 0 0 0 0 0 0 0 0 0 1 1 1 1 1 1 1 1 2 3 4 4 3 1 0 0 0 0 1 1 2 2 1 1 0 0 0
0 0 0 0 0 0 0 0 0 0 0 0 0 0 0 0 0 1 1 1 1 1 1 1 1 2 3 3 2 1 1 0 0 0 0 0 1 2 2 1 1 0 0 0
0 0 0 0 0 0 0 0 0 0 0 0 0 0 0 0 0 0 1 1 1 1 1 1 1 1 2 1 1 0 0 0 0 0 0 0 1 1 1 1 0 0 0 0
0 0 0 0 0 0 0 0 0 0 0 0 0 0 0 0 0 0 1 1 1 1 1 1 1 1 1 0 0 0 0 0 0 0 0 0 0 0 0 0 0 0 0 0
0 0 0 0 0 0 0 0 0 0 0 0 0 0 0 0 0 0 1 1 1 1 1 0 0 0 0 0 0 0 0 0 0 0 0 0 0 0 0 0 0 0 0 0
0 0 0 0 0 0 0 0 0 0 0 0 0 0 0 0 0 0 1 1 1 1 0 0 0 0 0 0 0 0 0 0 0 0 0 0 0 0 0 0 0 0 0 0
0 0 0 0 0 0 0 0 0 0 0 0 0 0 0 0 0 0 1 1 1 0 0 0 0 0 0 0 0 0 0 0 0 0 0 0 0 0 0 0 0 0 0 0
0 0 0 0 0 0 0 0 0 0 0 0 0 0 0 0 0 0 1 1 0 0 0 0 0 0 0 0 0 0 0 0 0 0 0 0 0 0 0 0 0 0 0 0
0 0 0 0 0 0 0 0 0 0 0 0 0 0 0 0 0 0 0 0 0 0 0 0 0 0 0 0 0 0 0 0 0 0 0 0 0 0 0 0 0 0 0 0
0 0 0 0 0 0 0 0 0 0 0 0 0 0 0 0 0 0 0 0 0 0 0 0 0 0 0 0 0 0 0 0 0 0 0 0 0 0 0 0 0 0 0 0
0 0 0 0 0 0 0 0 0 0 0 0 0 0 0 0 0 0 0 0 0 0 0 0 0 0 0 0 0 0 0 0 0 0 0 0 0 0 0 0 0 0 0 0
0 0 0 0 0 0 0 0 0 0 0 0 0 0 0 0 0 0 0 0 0 0 0 0 0 0 0 0 0 0 0 0 0 0 0 0 0 0 0 0 0 0 0 0
0 0 0 0 0 0 0 0 0 0 0 0 0 0 0 0 0 0 0 0 0 0 0 0 0 0 0 0 0 0 0 0 0 0 0 0 0 0 0 0 0 0 0 0
0 0 0 0 0 0 0 0 0 0 0 0 0 0 0 0 0 0 0 0 0 0 0 0 0 0 0 0 0 0 0 0 0 0 0 0 0 0 0 0 0 0 0 0
0 0 0 0 0 0 0 0 0 0 0 0 0 0 0 0 0 0 0 0 0 0 0 0 0 0 0 0 0 0 0 0 0 0 0 0 0 0 0 0 0 0 0 0
0 0 0 0 0 0 0 0 0 0 0 0 0 0 0 0 0 0 0 0 0 0 0 0 0 0 0 0 0 0 0 0 0 0 0 0 0 0 0 0 0 0 0 0
0 0 0 0 0 0 0 0 0 0 0 0 0 0 0 0 0 0 0 0 0 0 0 0 0 0 0 0 0 0 0 0 0 0 0 0 0 0 0 0 0 0 0 0
0 0 0 0 0 0 0 0 0 0 0 0 0 0 0 0 0 0 0 0 0 0 0 0 0 0 0 0 0 0 0 0 0 0 0 0 0 0 0 0 0 0 0 0
Wind_Speed
7 6 7 9 10 12 13 12 10 9 9 7 5 4 3 3 4 6 6 7 8 8 8 9 9 9 10 10 10 10 10 9 9 8 7 7 7 7 6 6 6 6 6 5
8 7 8 10 11 13 14 13 12 11 10 6 5 4 4 4 5 6 7 7 8 8 9 10 10 9 9 10 10 10 10 9 8 8 8 7 7 7 7 6 6 6 6 6
8 7 8 11 11 12 11 10 10 10 7 5 5 4 5 5 6 7 7 7 7 8 9 10 10 10 10 10 9 10 10 9 9 9 8 8 7 7 7 7 6 6 6 6
6 7 12 4 3 7 9 9 9 8 6 5 5 4 3 3 5 6 6 7 7 7 8 9 10 10 9 9 10 10 9 10 9 9 9 8 8 7 7 6 6 5 5 5
7 9 9 6 6 7 8 8 7 7 6 5 4 4 3 2 4 5 5 5 6 7 7 8 9 9 10 10 10 9 9 9 9 9 9 9 8 8 7 7 6 6 5 5
8 9 9 3 3 4 7 8 5 6 6 5 5 5 2 1 2 3 3 3 4 5 7 7 8 9 10 10 10 10 10 9 9 9 9 9 9 8 6 6 6 6 5 6
11 10 7 1 0 5 9 2 1 3 4 5 5 3 1 1 1 1 2 2 4 5 6 7 8 10 10 10 10 10 9 9 9 9 9 9 8 7 7 6 6 6 6 5
9 10 6 2 3 5 2 3 0 2 2 3 3 2 1 1 2 1 2 2 4 5 6 6 8 10 10 10 9 9 9 9 8 8 8 8 8 7 7 7 7 6 5 5
6 4 1 2 3 2 3 3 2 2 2 3 3 3 2 2 2 2 2 3 3 5 6 6 7 9 10 9 9 9 9 9 8 8 7 7 8 8 7 7 6 6 5 5
7 6 4 4 4 4 4 4 4 3 2 3 3 3 3 3 2 2 3 3 4 5 6 6 7 8 7 8 9 10 10 9 8 8 7 7 6 7 7 7 6 6 6 5
8 6 5 6 5 5 5 4 4 3 3 3 3 3 3 3 3 3 3 3 4 4 5 6 6 7 7 8 9 10 10 9 8 7 7 6 6 4 6 6 5 6 6 5
7 5 6 5 4 4 5 5 4 4 3 3 3 3 3 3 3 3 4 4 4 4 4 5 6 7 7 7 9 9 8 8 7 6 6 5 5 4 2 2 3 3 2 3
7 5 6 6 6 5 6 5 5 4 4 4 4 3 3 3 3 3 4 4 4 4 4 5 6 7 7 8 8 9 8 8 6 6 6 6 6 6 5 4 3 3 4 4
7 6 7 7 6 6 5 5 4 4 4 4 3 3 3 3 3 4 4 4 4 4 4 5 6 7 7 8 8 8 7 7 7 6 6 6 6 6 6 6 5 5 5 7
8 8 7 7 6 5 5 4 4 4 4 3 3 3 4 4 4 4 3 4 4 4 4 5 6 6 6 7 8 7 6 6 6 6 6 6 6 6 5 6 5 5 5 6
8 7 7 7 6 6 6 6 6 5 4 4 4 4 4 4 3 3 3 4 5 5 5 5 5 5 6 7 7 6 6 6 6 5 6 6 6 6 6 6 6 5 5 5
7 7 7 7 7 6 6 6 6 5 5 5 4 3 3 4 4 4 3 4 4 4 4 4 5 5 6 7 7 5 5 6 8 6 5 6 6 6 6 6 5 5 4 4
9 8 8 7 7 6 6 6 5 5 5 4 4 4 4 5 5 4 4 4 3 3 3 3 4 5 6 7 6 5 5 5 6 6 5 5 5 5 5 5 5 5 4 5
8 8 7 7 7 6 6 5 5 4 4 4 5 5 4 4 4 4 4 4 4 4 3 4 5 6 6 6 6 5 5 6 5 5 5 5 5 5 5 5 5 5 5 5
6 6 6 6 5 5 5 5 4 4 4 5 5 4 4 4 4 4 4 3 3 2 3 4 5 5 5 6 6 5 5 6 5 5 5 5 5 5 5 5 5 5 5 5
5 5 5 5 4 4 4 5 4 4 4 5 5 5 5 5 4 4 4 3 2 2 3 4 4 4 4 4 6 4 5 5 5 5 5 5 5 5 5 5 5 5 5 5
4 4 4 4 4 3 3 4 4 4 4 4 4 5 5 4 4 4 3 2 2 3 3 4 4 4 4 5 4 4 4 5 4 4 4 4 4 4 4 5 4 4 4 4
4 3 3 4 3 3 2 3 3 3 4 4 5 5 5 4 3 3 3 2 3 4 3 3 4 6 6 5 4 4 4 4 4 4 4 4 4 4 4 4 4 4 4 4
3 2 3 3 3 3 3 2 2 2 3 3 3 4 4 3 3 2 2 2 3 4 3 4 6 7 6 4 4 4 4 4 4 4 4 4 3 3 4 4 4 4 4 5
2 2 2 3 3 3 3 2 2 3 3 3 3 3 3 2 2 2 2 3 4 4 3 5 7 7 5 3 4 4 4 3 3 3 4 4 3 3 4 4 4 4 4 4
2 2 2 3 2 2 2 2 2 2 2 3 2 2 2 2 2 2 2 4 5 4 3 4 5 5 4 3 3 4 3 3 4 3 4 3 4 4 4 4 5 4 4 4
2 1 1 1 1 2 2 2 3 3 3 3 3 2 2 2 2 3 3 3 3 3 3 3 3 4 3 3 3 3 3 3 3 3 3 3 3 3 3 4 3 3 3 3
Wind_Direction
254 255 242 237 223 218 229 243 253 259 262 269 275 273 248 216 191 186 189 190 193 195 195 189 188 187 185 184 183 181 181 183 183 180 175 176 177 178 176 176 176 171 168 166
239 237 240 245 233 224 231 239 246 256 258 268 271 257 233 213 199 198 198 195 194 196 196 192 189 188 184 183 184 183 183 183 177 176 171 173 177 175 170 174 178 174 175 170
240 227 237 237 230 226 227 232 239 248 256 253 250 246 238 223 215 215 212 206 201 200 197 194 191 187 187 184 182 184 183 177 175 174 171 172 173 169 169 175 177 180 177 172
245 229 238 239 219 228 232 236 239 246 251 248 252 252 252 244 234 226 218 212 205 201 199 195 189 186 184 179 179 182 180 177 175 174 171 170 173 172 175 173 170 180 174 174
238 240 248 233 210 212 225 233 231 237 237 242 239 228 213 226 244 238 225 215 207 201 194 189 185 180 178 177 179 182 180 179 176 174 172 171 174 175 176 172 169 175 171 173
232 240 243 230 179 215 231 236 216 231 232 228 219 234 216 166 226 232 221 208 201 194 185 183 183 178 178 179 181 185 183 181 176 176 175 175 175 173 171 170 170 172 172 178
234 242 247 303 186 195 220 231 142 227 220 214 224 265 333 175 192 192 193 193 188 185 181 181 179 179 183 184 188 186 180 178 175 175 177 174 170 170 167 168 170 175 171 173
227 235 232 113 184 211 289 18 331 241 232 232 244 253 247 207 185 176 165 168 174 175 176 175 178 181 183 187 185 176 174 176 175 175 173 170 166 166 168 168 169 173 173 170
232 246 350 184 233 276 309 297 299 263 237 230 238 240 227 213 199 184 174 166 171 173 170 173 180 185 185 180 174 171 169 173 173 171 170 169 169 169 170 173 179 180 180 184
236 234 248 258 260 262 279 291 296 279 248 227 236 238 225 211 202 183 176 173 169 171 175 176 181 188 186 170 169 170 171 172 171 171 169 170 173 176 178 180 184 187 188 190
244 248 254 249 255 268 278 280 275 267 250 237 235 234 228 218 209 194 177 180 182 182 183 179 176 180 175 171 171 172 173 172 170 171 169 172 175 182 189 190 193 192 193 192
246 246 255 259 271 272 268 265 260 251 249 250 243 233 228 223 210 195 182 182 190 192 186 178 172 170 168 171 175 174 172 171 170 168 169 171 171 166 131 173 147 173 185 198
266 271 272 273 276 268 263 263 259 250 244 246 248 233 223 213 204 197 191 189 192 191 187 178 174 171 169 172 177 179 177 173 171 172 172 177 178 178 174 158 153 173 188 199
258 259 259 261 272 275 264 257 256 251 244 236 233 225 214 205 194 195 197 194 191 188 184 179 177 175 172 174 179 182 179 175 176 177 178 182 185 187 188 184 179 182 187 195
252 252 256 269 269 261 254 244 238 237 227 221 215 210 204 204 198 195 190 185 185 186 183 179 181 178 173 176 179 181 180 177 179 179 181 185 186 188 189 193 195 189 178 172
254 251 247 251 252 248 246 240 233 232 225 213 211 210 209 204 192 185 183 185 187 189 187 186 187 180 176 179 179 181 181 174 178 180 180 184 188 190 190 194 198 196 194 181
246 246 243 245 249 248 244 238 232 229 221 210 203 195 192 187 182 181 186 197 200 198 194 193 188 179 179 182 181 179 176 173 179 186 186 188 190 194 194 195 199 198 196 179
246 250 249 249 248 244 240 237 232 226 215 202 186 187 192 192 189 185 183 184 183 189 199 198 185 179 180 183 184 182 179 178 183 187 186 189 192 196 196 195 198 200 192 175
244 244 247 247 248 242 235 231 230 222 208 195 192 196 201 198 189 185 184 184 188 195 199 184 175 183 181 181 182 182 181 179 182 185 185 178 190 199 197 197 198 199 195 187
248 245 246 247 243 236 231 228 219 210 205 200 195 193 196 196 193 191 192 201 213 212 186 169 174 178 175 173 178 182 181 182 183 182 183 188 194 199 199 198 198 199 197 195
256 248 239 236 233 228 228 221 207 203 203 202 200 199 198 194 193 194 194 201 205 193 177 169 181 176 173 166 176 179 178 180 182 183 186 190 194 199 200 197 199 203 202 199
256 244 231 223 216 215 217 214 205 199 198 200 202 200 193 191 193 199 207 214 199 176 181 181 181 164 162 166 177 176 180 183 184 185 187 191 195 200 202 201 201 202 207 208
256 241 220 213 205 197 199 205 201 196 197 198 196 196 196 197 198 197 203 200 186 178 186 177 155 150 162 177 176 177 182 185 188 190 192 196 200 203 202 202 202 201 204 207
252 230 214 199 184 179 191 200 191 193 195 194 196 195 191 188 194 203 192 165 167 175 180 148 148 157 176 181 176 178 182 185 189 192 193 197 201 203 201 201 202 203 205 208
224 203 190 179 183 191 191 184 176 179 180 176 176 182 188 189 189 184 174 167 162 170 168 159 160 170 182 179 178 180 183 187 188 190 193 195 198 201 202 202 203 204 206 207
205 192 197 207 212 203 189 187 187 184 174 165 162 165 162 157 157 163 165 168 169 172 171 165 168 176 183 178 181 183 185 182 186 194 198 198 202 205 206 205 208 208 210 212
188 182 190 196 208 209 203 196 192 188 185 177 171 173 171 170 168 166 167 168 169 172 169 167 171 176 177 178 184 188 190 192 193 193 195 197 200 204 206 211 211 207 207 210